Location: Caltech
(34.1382°N, 118.1253°W)
Time: 23:33:14
(UTC-07:00)

Tiros 1 despin weight - All Passes

Search period start: 24 April 2015 00:00
Search period end: 04 May 2015 00:00
Orbit: 598 x 648 km, 48.2° (Epoch: 24 April)

Date Brightness Start Highest point End Pass type
(mag) Time Alt. Az. Time Alt. Az. Time Alt. Az.
24 Apr - 08:28:44 10° S 08:32:01 19° SE 08:35:27 10° E daylight
24 Apr - 10:08:43 10° WSW 10:13:24 67° NW 10:18:06 10° NE daylight
24 Apr - 11:52:16 10° WNW 11:55:47 20° NNW 11:59:16 10° NNE daylight
24 Apr - 13:36:17 10° NNW 13:38:53 14° N 13:41:29 10° NE daylight
24 Apr - 15:17:53 10° NW 15:21:50 26° NNE 15:25:46 10° E daylight
24 Apr - 16:59:13 10° NW 17:03:53 72° SW 17:08:27 10° SE daylight
25 Apr - 08:45:34 10° SSW 08:49:58 42° SE 08:54:25 10° ENE daylight
25 Apr - 10:27:20 10° W 10:31:43 37° NNW 10:36:06 10° NE daylight
25 Apr - 12:11:34 10° NW 12:14:28 16° N 12:17:20 10° NNE daylight
25 Apr - 13:54:36 10° NNW 13:57:37 17° N 14:00:38 10° NE daylight
25 Apr - 15:35:48 10° NW 15:40:17 42° NNE 15:44:42 10° ESE daylight
25 Apr - 17:17:42 10° WNW 17:21:54 33° SW 17:26:00 10° SSE daylight
26 Apr - 07:24:45 10° SSE 07:26:47 13° SE 07:29:02 10° E daylight
26 Apr - 09:03:19 10° SW 09:08:00 88° SSE 09:12:45 10° NE daylight
26 Apr - 10:46:22 10° WNW 10:50:12 24° NNW 10:54:00 10° NNE daylight
26 Apr - 12:30:38 10° NW 12:33:13 14° N 12:35:47 10° NNE daylight
26 Apr - 14:12:37 10° NNW 14:16:16 22° NNE 14:19:56 10° ENE daylight
26 Apr - 15:53:49 10° NW 15:58:32 81° NE 16:03:10 10° SE daylight
26 Apr - 17:37:03 10° W 17:39:48 15° SW 17:42:22 10° SSW daylight
27 Apr - 07:40:42 10° SSW 07:44:40 29° SE 07:48:45 10° ENE daylight
27 Apr - 09:21:42 10° WSW 09:26:14 48° NNW 09:30:49 10° NE daylight
27 Apr - 11:05:38 10° NW 11:08:49 17° NNW 11:11:58 10° NNE daylight
27 Apr - 12:49:11 10° NNW 12:51:57 15° N 12:54:45 10° NE daylight
27 Apr - 14:30:31 10° NW 14:34:47 33° NNE 14:39:01 10° E daylight
27 Apr - 16:12:04 10° WNW 16:16:36 48° SW 16:21:03 10° SSE daylight
28 Apr - 07:58:03 10° SW 08:02:38 62° SE 08:07:18 10° ENE daylight
28 Apr - 09:40:31 10° W 09:44:37 29° NNW 09:48:43 10° NE daylight
28 Apr - 11:24:51 10° NW 11:27:31 15° N 11:30:11 10° NNE daylight
28 Apr - 13:07:18 10° NNW 13:10:39 19° NNE 13:14:00 10° ENE daylight
28 Apr - 14:48:27 10° NW 14:53:06 58° NNE 14:57:41 10° ESE daylight
28 Apr - 16:30:51 10° W 16:34:32 22° SW 16:38:05 10° S daylight
29 Apr - 06:36:06 10° S 06:39:23 20° SE 06:42:49 10° E daylight
29 Apr - 08:16:08 10° WSW 08:20:45 65° NW 08:25:27 10° NE daylight
29 Apr - 09:59:40 10° WNW 10:03:09 20° NNW 10:06:37 10° NNE daylight
29 Apr - 11:43:38 10° NNW 11:46:15 15° N 11:48:53 10° NE daylight
29 Apr - 13:25:13 10° NW 13:29:12 27° NNE 13:33:11 10° E daylight
29 Apr - 15:06:34 10° NW 15:11:15 71° SW 15:15:51 10° SE daylight
30 Apr - 06:52:56 10° SSW 06:57:17 42° SE 07:01:44 10° ENE daylight
30 Apr - 08:34:43 10° W 08:39:03 36° NNW 08:43:24 10° NE daylight
30 Apr - 10:18:55 10° NW 10:21:48 16° N 10:24:40 10° NNE daylight
30 Apr - 12:01:55 10° NNW 12:04:57 17° NNE 12:08:02 10° NE daylight
30 Apr - 13:43:06 10° NW 13:47:36 43° NNE 13:52:05 10° ESE daylight
30 Apr - 15:25:01 10° WNW 15:29:13 33° SW 15:33:21 10° SSE daylight
01 May - 05:32:02 10° SSE 05:34:05 13° SE 05:36:22 10° E visible
01 May - 07:10:40 10° SW 07:15:18 90° SE 07:20:01 10° NE daylight
01 May - 08:53:43 10° WNW 08:57:30 23° NNW 09:01:16 10° NNE daylight
01 May - 10:37:57 10° NW 10:40:31 14° N 10:43:06 10° NNE daylight
01 May - 12:19:53 10° NNW 12:23:34 22° NNE 12:27:17 10° ENE daylight
01 May - 14:01:05 10° NW 14:05:49 82° NE 14:10:29 10° SE daylight
01 May - 15:44:20 10° W 15:47:06 15° SW 15:49:39 10° SSW daylight
02 May - 05:47:59 10° SSW 05:51:57 29° SE 05:56:00 10° ENE daylight
02 May - 07:29:00 10° WSW 07:33:30 47° NNW 07:38:03 10° NE daylight
02 May - 09:12:57 10° NW 09:16:06 17° NNW 09:19:12 10° NNE daylight
02 May - 10:56:27 10° NNW 10:59:14 15° N 11:02:03 10° NE daylight
02 May - 12:37:45 10° NW 12:42:02 33° NNE 12:46:19 10° E daylight
02 May - 14:19:19 10° WNW 14:23:51 48° SW 14:28:20 10° SSE daylight
03 May - 06:05:20 10° SW 06:09:53 63° SE 06:14:31 10° ENE daylight
03 May - 07:47:48 10° W 07:51:51 28° NNW 07:55:55 10° NE daylight
03 May - 09:32:07 10° NW 09:34:46 15° N 09:37:24 10° NNE daylight
03 May - 11:14:31 10° NNW 11:17:52 19° NNE 11:21:17 10° ENE daylight
03 May - 12:55:39 10° NW 13:00:20 59° NE 13:04:58 10° ESE daylight
03 May - 14:38:04 10° W 14:41:45 22° SW 14:45:19 10° S daylight
